TimeEDT,TemperatureF,Dew PointF,Humidity,Sea Level PressureIn,VisibilityMPH,Wind Direction,Wind SpeedMPH,Gust SpeedMPH,PrecipitationIn,Events,Conditions,WindDirDegrees,DateUTC
12:09 AM,71.6,68.0,88,30.03,7.0,Calm,Calm,-,N/A,,Scattered Clouds,0,2013-09-12 04:09:00
12:27 AM,71.6,68.0,88,30.02,7.0,Calm,Calm,-,N/A,,Mostly Cloudy,0,2013-09-12 04:27:00
12:48 AM,71.6,68.0,88,30.02,7.0,Calm,Calm,-,N/A,,Scattered Clouds,0,2013-09-12 04:48:00
1:09 AM,69.8,68.0,94,30.01,7.0,Calm,Calm,-,N/A,,Clear,0,2013-09-12 05:09:00
1:27 AM,69.8,68.0,94,30.01,7.0,Calm,Calm,-,N/A,,Clear,0,2013-09-12 05:27:00
1:48 AM,69.8,68.0,94,30.01,5.0,Calm,Calm,-,N/A,,Clear,0,2013-09-12 05:48:00
2:09 AM,69.8,68.0,94,30.00,5.0,Calm,Calm,-,N/A,,Clear,0,2013-09-12 06:09:00
2:27 AM,69.8,68.0,94,30.00,5.0,Calm,Calm,-,N/A,,Clear,0,2013-09-12 06:27:00
2:48 AM,69.8,66.2,88,29.99,5.0,Calm,Calm,-,N/A,,Clear,0,2013-09-12 06:48:00
3:09 AM,69.8,68.0,94,29.99,5.0,South,3.5,-,N/A,,Clear,170,2013-09-12 07:09:00
3:27 AM,69.8,68.0,94,29.98,4.0,Calm,Calm,-,N/A,,Clear,0,2013-09-12 07:27:00
3:48 AM,69.8,66.2,88,29.98,5.0,SSW,3.5,-,N/A,,Clear,200,2013-09-12 07:48:00
4:09 AM,68.0,66.2,94,29.98,5.0,Calm,Calm,-,N/A,,Clear,0,2013-09-12 08:09:00
4:27 AM,68.0,66.2,94,29.98,4.0,Calm,Calm,-,N/A,,Clear,0,2013-09-12 08:27:00
4:48 AM,68.0,66.2,94,29.97,4.0,Calm,Calm,-,N/A,,Clear,0,2013-09-12 08:48:00
5:09 AM,68.0,66.2,94,29.97,5.0,Calm,Calm,-,N/A,,Clear,0,2013-09-12 09:09:00
5:30 AM,68.0,64.4,88,29.97,4.0,Calm,Calm,-,N/A,,Clear,0,2013-09-12 09:30:00
5:48 AM,68.0,64.4,88,29.98,3.0,Calm,Calm,-,N/A,,Clear,0,2013-09-12 09:48:00
6:09 AM,68.0,66.2,94,29.98,4.0,Calm,Calm,-,N/A,,Clear,0,2013-09-12 10:09:00
6:30 AM,68.0,64.4,88,29.98,3.0,Calm,Calm,-,N/A,,Scattered Clouds,0,2013-09-12 10:30:00
6:48 AM,68.0,64.4,88,29.98,4.0,Calm,Calm,-,N/A,,Mostly Cloudy,0,2013-09-12 10:48:00
7:09 AM,68.0,64.4,88,29.98,3.0,Calm,Calm,-,N/A,,Scattered Clouds,0,2013-09-12 11:09:00
7:30 AM,68.0,66.2,94,29.98,4.0,Calm,Calm,-,N/A,,Scattered Clouds,0,2013-09-12 11:30:00
7:48 AM,69.8,66.2,88,29.98,4.0,Calm,Calm,-,N/A,,Mostly Cloudy,0,2013-09-12 11:48:00
8:09 AM,69.8,68.0,94,29.98,5.0,Calm,Calm,-,N/A,,Mostly Cloudy,0,2013-09-12 12:09:00
8:45 AM,73.4,68.0,83,29.96,10.0,SSW,3.5,-,N/A,,Clear,210,2013-09-12 12:45:00
9:03 AM,77.0,68.0,74,29.95,10.0,SSW,3.5,-,N/A,,Clear,200,2013-09-12 13:03:00
9:24 AM,78.8,68.0,69,29.95,10.0,SSW,4.6,-,N/A,,Clear,200,2013-09-12 13:24:00
9:45 AM,80.6,69.8,70,29.95,10.0,SW,4.6,-,N/A,,Clear,220,2013-09-12 13:45:00
10:03 AM,80.6,69.8,70,29.95,10.0,WSW,4.6,-,N/A,,Clear,240,2013-09-12 14:03:00
10:24 AM,82.4,69.8,66,29.95,10.0,SW,4.6,-,N/A,,Clear,220,2013-09-12 14:24:00
10:45 AM,82.4,69.8,66,29.94,10.0,South,3.5,-,N/A,,Clear,190,2013-09-12 14:45:00
11:03 AM,86.0,68.0,55,29.93,10.0,Calm,Calm,-,N/A,,Clear,0,2013-09-12 15:03:00
11:24 AM,86.0,68.0,55,29.92,10.0,South,4.6,-,N/A,,Clear,180,2013-09-12 15:24:00
11:45 AM,86.0,68.0,55,29.92,10.0,WSW,3.5,-,N/A,,Clear,240,2013-09-12 15:45:00
12:03 PM,87.8,68.0,52,29.91,10.0,WSW,5.8,-,N/A,,Clear,240,2013-09-12 16:03:00
12:24 PM,87.8,68.0,52,29.90,10.0,SW,5.8,-,N/A,,Clear,230,2013-09-12 16:24:00
12:45 PM,87.8,68.0,52,29.89,10.0,SW,8.1,-,N/A,,Scattered Clouds,220,2013-09-12 16:45:00
1:03 PM,87.8,68.0,52,29.88,10.0,SSE,6.9,-,N/A,,Scattered Clouds,150,2013-09-12 17:03:00
1:24 PM,87.8,68.0,52,29.87,10.0,NW,6.9,-,N/A,,Mostly Cloudy,310,2013-09-12 17:24:00
1:45 PM,78.8,68.0,69,29.86,10.0,NW,10.4,-,N/A,,Overcast,320,2013-09-12 17:45:00
2:03 PM,77.0,68.0,74,29.86,0.2,Calm,Calm,-,N/A,,Overcast,0,2013-09-12 18:03:00
2:24 PM,73.4,69.8,88,29.85,7.0,NNE,3.5,-,N/A,,Scattered Clouds,20,2013-09-12 18:24:00
2:39 PM,73.4,69.8,88,29.88,2.0,SW,15.0,21.9,N/A,,Mostly Cloudy,220,2013-09-12 18:39:00
3:03 PM,69.8,66.2,88,29.84,2.0,Calm,Calm,-,N/A,,Mostly Cloudy,0,2013-09-12 19:03:00
3:24 PM,71.6,68.0,88,29.82,4.0,Calm,Calm,-,N/A,,Clear,0,2013-09-12 19:24:00
3:45 PM,75.2,71.6,89,29.80,7.0,SE,6.9,-,N/A,,Clear,130,2013-09-12 19:45:00
4:06 PM,73.4,69.8,88,29.80,7.0,Calm,Calm,-,N/A,,Clear,0,2013-09-12 20:06:00
4:24 PM,71.6,69.8,94,29.81,4.0,WNW,8.1,-,N/A,,Scattered Clouds,300,2013-09-12 20:24:00
4:42 PM,71.6,69.8,94,29.80,3.0,WSW,9.2,-,N/A,,Scattered Clouds,250,2013-09-12 20:42:00
5:06 PM,71.6,68.0,88,29.82,0.8,West,13.8,18.4,N/A,,Overcast,270,2013-09-12 21:06:00
5:24 PM,69.8,68.0,94,29.82,1.8,West,6.9,-,N/A,,Overcast,260,2013-09-12 21:24:00
5:45 PM,69.8,68.0,94,29.81,2.0,SE,11.5,-,N/A,,Overcast,140,2013-09-12 21:45:00
6:06 PM,69.8,66.2,88,29.79,5.0,SSE,4.6,-,N/A,,Overcast,160,2013-09-12 22:06:00
6:24 PM,69.8,66.2,88,29.78,1.2,West,3.5,-,N/A,,Overcast,260,2013-09-12 22:24:00
6:45 PM,69.8,68.0,94,29.81,2.0,Calm,Calm,-,N/A,,Overcast,0,2013-09-12 22:45:00
7:06 PM,69.8,68.0,94,29.82,4.0,Calm,Calm,-,N/A,,Mostly Cloudy,0,2013-09-12 23:06:00
7:24 PM,69.8,68.0,94,29.80,1.5,SSE,5.8,-,N/A,,Overcast,160,2013-09-12 23:24:00
7:45 PM,69.8,68.0,94,29.80,3.0,Calm,Calm,-,N/A,,Scattered Clouds,0,2013-09-12 23:45:00
8:06 PM,68.0,68.0,100,29.78,2.0,Calm,Calm,-,N/A,,Clear,0,2013-09-13 00:06:00
8:24 PM,68.0,66.2,94,29.79,1.8,Calm,Calm,-,N/A,,Unknown,0,2013-09-13 00:24:00
8:45 PM,68.0,66.2,94,29.79,2.0,Calm,Calm,-,N/A,,Clear,0,2013-09-13 00:45:00
9:06 PM,68.0,66.2,94,29.80,1.5,Calm,Calm,-,N/A,,Unknown,0,2013-09-13 01:06:00
9:24 PM,68.0,66.2,94,29.81,2.0,Calm,Calm,-,N/A,,Clear,0,2013-09-13 01:24:00
9:45 PM,68.0,64.4,88,29.80,1.5,Calm,Calm,-,N/A,,Unknown,0,2013-09-13 01:45:00
10:06 PM,68.0,64.4,88,29.80,1.5,Calm,Calm,-,N/A,,Unknown,0,2013-09-13 02:06:00
10:24 PM,66.2,64.4,94,29.79,1.2,Calm,Calm,-,N/A,,Scattered Clouds,0,2013-09-13 02:24:00
10:45 PM,68.0,64.4,88,29.79,1.8,Calm,Calm,-,N/A,,Scattered Clouds,0,2013-09-13 02:45:00
11:06 PM,68.0,64.4,88,29.78,1.8,Calm,Calm,-,N/A,,Mostly Cloudy,0,2013-09-13 03:06:00
11:27 PM,68.0,64.4,88,29.78,1.5,Calm,Calm,-,N/A,,Overcast,0,2013-09-13 03:27:00
11:45 PM,68.0,66.2,94,29.78,1.8,Calm,Calm,-,N/A,,Overcast,0,2013-09-13 03:45:00